Wind_Speed
20 21 23 25 27 29 31 30 29 29 27 24 22 30 42 49 49 50 49 53 60 63 61 59 43 45 49 49 43 40 38 37
20 23 25 26 29 32 34 35 37 37 35 32 28 20 31 39 46 50 49 49 51 59 59 47 40 45 47 40 49 44 45 43
21 24 26 29 31 34 36 38 39 40 41 39 38 33 24 26 35 42 48 50 50 51 56 58 62 48 45 44 42 51 52 49
22 25 29 31 33 35 37 39 40 40 40 40 39 37 32 24 21 32 40 48 53 54 51 58 60 54 42 47 58 48 56 56
25 28 31 33 35 39 40 41 40 39 37 38 36 39 40 36 29 22 27 40 48 57 56 56 59 61 55 59 52 48 45 49
29 31 33 35 37 37 36 35 37 37 37 36 36 34 34 37 35 31 21 26 40 51 59 60 58 55 57 64 36 54 46 44
27 29 32 34 35 35 34 34 35 37 37 37 36 33 31 34 35 37 31 19 28 43 54 60 61 61 59 54 57 41 59 49
30 32 34 33 33 34 32 33 35 36 35 34 34 35 31 31 34 37 38 30 18 33 45 55 62 64 61 53 62 57 43 47
29 30 31 31 31 30 30 32 34 35 35 34 32 31 32 31 31 32 35 38 27 20 35 45 56 64 65 63 62 63 60 59
29 28 29 28 27 27 31 33 32 34 35 34 31 30 30 30 29 28 30 34 35 26 24 32 41 56 63 66 66 63 64 63
27 26 27 29 29 30 30 32 34 34 35 35 32 31 30 30 29 26 27 28 32 33 22 25 28 40 54 62 64 63 59 61
28 26 27 30 31 31 31 32 33 34 34 34 31 30 31 30 29 27 26 26 27 32 26 22 26 29 43 54 58 60 59 56
27 27 28 31 32 32 31 32 33 34 35 34 32 30 31 32 31 28 26 25 24 26 30 21 27 27 31 44 53 54 56 60
26 26 28 32 32 32 31 32 33 34 34 33 32 30 31 31 30 28 25 25 23 24 27 20 20 23 28 33 43 49 50 49
24 27 28 33 33 33 31 30 32 34 33 33 32 30 30 30 30 28 24 22 21 22 23 26 16 25 22 31 42 51 52 48
25 28 30 34 33 33 30 31 33 34 33 33 31 29 30 28 28 27 24 22 21 19 21 20 20 17 24 28 35 46 44 48
27 32 34 34 34 32 30 32 33 34 34 32 31 29 28 29 26 25 23 21 19 16 19 18 21 13 19 28 34 42 47 47
33 34 34 33 31 31 32 33 34 33 33 31 30 30 29 29 26 25 22 20 18 17 17 16 16 18 13 20 26 35 40 47
32 33 32 31 30 30 32 33 34 33 32 30 31 30 31 31 29 24 22 20 17 15 15 16 14 15 18 10 15 25 44 43
Wind_Direction
5 5 5 4 3 2 2 3 5 7 13 7 305 273 262 257 255 252 252 252 252 254 254 248 250 211 218 217 226 223 225 224
1 358 358 357 356 356 356 355 356 354 354 359 5 323 269 266 263 255 247 247 249 251 253 239 245 236 229 221 222 236 224 226
351 349 349 350 350 350 350 351 350 349 347 347 348 353 342 291 271 259 252 245 243 245 247 250 245 256 217 224 219 219 233 228
348 347 347 348 347 348 347 345 342 340 339 338 338 338 343 342 299 272 256 245 241 239 240 242 245 242 221 230 218 218 227 230
346 345 344 343 343 344 343 342 341 342 338 333 333 333 334 341 348 324 271 253 241 238 236 239 237 241 239 228 235 217 223 222
342 339 338 340 340 343 345 346 344 345 345 341 332 329 330 332 339 343 326 267 247 241 237 235 239 234 241 234 256 228 222 223
335 332 332 335 339 344 346 349 348 346 345 342 336 329 328 328 331 337 343 315 255 243 242 237 236 237 236 241 236 248 226 222
337 335 335 340 342 343 349 350 348 347 345 343 339 333 328 327 329 333 340 340 300 250 242 238 237 235 235 234 232 244 200 216
335 333 335 340 341 343 346 348 346 346 345 344 343 337 330 330 328 331 337 341 337 280 250 242 235 236 235 234 228 236 250 253
339 338 339 341 341 344 345 344 345 345 345 345 344 341 335 331 328 327 331 341 343 329 266 254 242 233 233 236 234 234 236 240
343 345 346 346 345 345 344 345 344 345 346 344 344 343 340 333 329 326 324 335 344 338 303 264 252 237 231 232 235 235 236 235
348 350 349 347 343 343 344 345 344 343 343 343 342 344 343 340 332 325 324 328 343 344 321 276 258 245 230 229 230 232 235 237
351 349 347 347 344 342 342 342 343 343 342 342 341 343 342 342 338 330 325 323 334 343 339 301 270 255 242 227 227 230 231 235
346 344 342 346 344 342 341 342 342 342 341 340 340 342 340 339 339 335 326 322 327 337 337 321 275 265 252 230 227 218 218 227
339 339 339 344 344 342 340 341 343 342 341 339 339 341 338 339 337 335 331 322 321 330 333 343 299 265 253 236 226 218 217 224
337 339 340 343 341 342 342 342 343 342 342 342 340 342 338 339 338 337 336 329 324 323 330 339 331 287 263 247 238 221 231 218
339 342 344 344 343 344 345 344 345 344 346 347 344 344 341 341 342 339 340 335 324 321 326 331 343 310 271 262 244 231 226 223
341 344 347 349 348 347 348 345 346 347 348 349 352 351 348 345 348 344 343 340 331 322 325 329 344 341 283 268 255 237 234 231
343 348 352 351 350 350 348 346 347 349 349 352 356 359 357 353 352 350 348 345 340 331 332 328 344 352 345 297 261 243 230 231
Height
3135 3132 3127 3121 3117 3111 3105 3100 3095 3092 3087 3083 3078 3076 3076 3074 3075 3077 3079 3078 3082 3084 3092 3090 3062 3085 3099 3113 3124 3129 3137 3141
3135 3132 3126 3122 3116 3110 3105 3099 3092 3087 3082 3077 3074 3069 3066 3064 3064 3065 3070 3069 3071 3071 3072 3079 3080 3088 3093 3099 3115 3121 3127 3133
3135 3131 3126 3120 3114 3109 3103 3096 3090 3085 3078 3073 3068 3065 3060 3055 3053 3054 3056 3061 3062 3064 3066 3068 3073 3064 3082 3094 3102 3110 3119 3124
3133 3128 3123 3117 3112 3107 3101 3094 3089 3082 3076 3069 3064 3060 3057 3052 3045 3043 3044 3048 3052 3055 3059 3060 3062 3066 3061 3075 3086 3099 3107 3113
3132 3125 3120 3114 3109 3103 3097 3090 3083 3077 3071 3064 3059 3051 3045 3043 3039 3036 3033 3034 3039 3042 3046 3050 3053 3057 3063 3069 3069 3080 3093 3098
3129 3123 3117 3112 3106 3100 3094 3088 3081 3073 3067 3060 3053 3049 3043 3036 3033 3031 3027 3023 3025 3027 3031 3039 3042 3047 3053 3059 3048 3069 3080 3089
3128 3122 3115 3111 3104 3097 3091 3085 3077 3071 3063 3056 3050 3044 3038 3032 3026 3023 3020 3015 3014 3015 3017 3025 3031 3036 3043 3050 3047 3051 3069 3076
3124 3118 3112 3106 3100 3094 3088 3082 3075 3068 3062 3055 3047 3038 3034 3028 3021 3016 3011 3008 3005 3004 3005 3010 3017 3024 3031 3039 3043 3043 3044 3063
3123 3116 3109 3103 3098 3092 3085 3079 3073 3065 3058 3051 3045 3037 3029 3024 3018 3012 3007 3001 2997 2995 2994 2995 3002 3009 3015 3022 3028 3031 3036 3045
3119 3113 3107 3101 3096 3089 3082 3076 3070 3062 3055 3048 3042 3035 3028 3021 3016 3010 3005 2997 2991 2988 2986 2985 2988 2993 3001 3006 3014 3021 3028 3036
3117 3111 3105 3099 3092 3086 3080 3074 3065 3058 3051 3044 3037 3031 3025 3018 3012 3006 3002 2995 2989 2983 2979 2977 2978 2983 2988 2994 3001 3011 3017 3026
3114 3109 3103 3097 3090 3083 3077 3070 3063 3056 3049 3041 3034 3028 3021 3015 3008 3002 2996 2991 2986 2981 2976 2972 2970 2973 2977 2984 2991 3000 3008 3016
3113 3107 3101 3095 3088 3081 3074 3067 3060 3052 3045 3037 3031 3024 3018 3011 3004 2998 2992 2987 2982 2979 2974 2969 2966 2967 2970 2975 2980 2989 2997 3004
3111 3105 3099 3092 3085 3077 3071 3064 3057 3049 3042 3034 3028 3020 3015 3008 3001 2995 2989 2983 2978 2974 2971 2966 2962 2961 2964 2969 2973 2980 2986 2992
3110 3104 3097 3089 3081 3074 3067 3061 3054 3046 3039 3032 3024 3017 3011 3005 2998 2991 2985 2980 2975 2971 2966 2962 2957 2955 2956 2961 2964 2969 2975 2982
3108 3101 3093 3085 3078 3071 3064 3057 3050 3043 3036 3028 3020 3014 3008 3002 2995 2987 2981 2976 2972 2968 2963 2958 2953 2949 2947 2951 2956 2958 2962 2968
3104 3097 3089 3082 3074 3068 3061 3054 3047 3039 3032 3025 3018 3011 3005 2999 2993 2985 2978 2973 2969 2965 2961 2956 2951 2945 2942 2941 2946 2950 2953 2959
3100 3093 3086 3079 3071 3064 3058 3051 3044 3037 3030 3023 3017 3009 3002 2995 2990 2983 2977 2971 2966 2963 2959 2955 2950 2944 2939 2937 2937 2940 2944 2949
3097 3089 3083 3076 3070 3063 3056 3049 3042 3035 3028 3022 3015 3008 3000 2993 2987 2982 2976 2969 2964 2960 2958 2953 2948 2944 2939 2937 2933 2933 2937 2942